Location: Peterborough
(44.3091°N, 78.3197°W)
Time: 00:27:30
(UTC-04:00)

SR - Pass Details

Date: 28 March 2023
Orbit: 581 x 867 km, 66.7° (Epoch: 02 June)

Event Time Altitude Azimuth Distance (km) Brightness Sun altitude
Rises 11:48:43 0° 323° (NW) 2,819 ? 44.3°
Reaches altitude 10° 11:50:56 10° 319° (NW) 1,930 ? 44.5°
Maximum altitude 11:55:08 53° 243° (WSW) 758 ? 44.8°
Drops below altitude 10° 11:59:33 10° 167° (SSE) 2,028 ? 45.2°
Sets 12:01:56 0° 162° (SSE) 2,977 ? 45.4°
